[[{"header":{"parameterUnit":"m.s-1","parameterCategory":2,"la1":30.2991,"la2":30.254,"lo1":-89.0895,"lo2":-89.0444,"dy":0.0017,"dx":0.0017,"nx":28,"ny":28,"refTime":"2024-10-11T21:00:00:Z","depth":"0","parameterNumber":2,"parameterNumberName":"U-component_of_CURRENTS"},"data":[0,0,0,0,0,0,0,0,0,0,0,0,0,0,0,0,0,0,0,0,0,0,0,0,0,0,0,0,0,0,0,0,0,0,0,0,0,0,0,0,0,0,0,0,0,0,0,0,0,0,0,0,0,0,0,0,0,0,0.3259,0.326,0,0.3301,0.3302,0.3302,0.3299,0.3299,0.3298,0.3298,0.329,0.329,0.329,0,0,0,0,0,0,0,0,0,0,0,0,0,0.3224,0.3224,0.3259,0.326,0.326,0.3301,0.3302,0.3302,0.33,0.3299,0.3298,0.3297,0.329,0.329,0.329,0,0,0,0,0,0,0,0,0,0,0,0,0,0.3249,0.3224,0.3259,0.3264,0.3265,0.3301,0.3302,0.3302,0.33,0.3299,0.3298,0.3297,0.329,0.329,0.3291,0.3311,0,0,0.3292,0.3292,0,0,0,0,0,0,0,0,0.3248,0.3251,0.3263,0.3264,0.3265,0.3294,0.3286,0.3303,0.33,0.3286,0.3298,0.3297,0.3287,0.3288,0.3298,0.3311,0.3311,0.3292,0.3292,0.3293,0.3293,0,0,0,0,0,0,0,0.3246,0.3249,0.3276,0.3264,0.3265,0.328,0.3282,0.329,0.329,0.3287,0.3287,0.3293,0.3288,0.3298,0.3298,0.3311,0.3292,0.3293,0.3293,0.3293,0.3347,0.3348,0,0,0,0,0,0,0.324,0.3247,0.3274,0.3277,0.3254,0.3281,0.3284,0.3286,0.3291,0.3292,0.3293,0.3292,0.3297,0.3297,0.3298,0.3333,0.3293,0.3293,0.3293,0.3346,0.3348,0.3349,0,0,0,0,0,0,0.3239,0.3242,0.3273,0.3263,0.3268,0.3283,0.3285,0.3287,0.3302,0.3296,0.3296,0.3306,0.3297,0.3297,0.331,0.3332,0.3293,0.3294,0.3345,0.3347,0.3348,0.3397,0,0,0,0,0,0,0.3238,0.3241,0.3243,0.3263,0.3269,0.33,0.3286,0.3288,0.3306,0.3305,0.3307,0.3305,0.3296,0.3309,0.331,0.3332,0.3294,0.3343,0.3346,0.3348,0.3394,0.3401,0.3406,0,0,0,0,0,0.3236,0.324,0.3243,0.3246,0.327,0.3301,0.3306,0.3313,0.3308,0.3322,0.332,0.3306,0.3323,0.3311,0.3312,0.3334,0.3342,0.3345,0.3348,0.3392,0.3399,0.3406,0,0,0,0,0,0,0.3219,0.3241,0.3244,0.3252,0.3279,0.3301,0.3312,0.3321,0.3333,0.3329,0.332,0.3319,0.3343,0.3332,0.3318,0.3357,0.3331,0.3334,0.3364,0.3371,0.3377,0.3395,0.3295,0,0,0,0,0,0.3218,0.3228,0.3255,0.3261,0.3276,0.3297,0.3311,0.332,0.3333,0.3338,0.3339,0.3342,0.3356,0.3357,0.3366,0.3384,0.3428,0.34,0.3405,0.341,0.3426,0.3514,0.353,0.3357,0.3357,0.3357,0,0,0.3214,0.3225,0.3232,0.3259,0.3277,0.3304,0.3303,0.3329,0.3351,0.3335,0.3359,0.3366,0.3368,0.3392,0.3401,0.3382,0.3486,0.3414,0.3418,0.3431,0.3519,0.3536,0.3551,0.3359,0.3359,0.3358,0,0,0.3212,0.3222,0.3234,0.326,0.3292,0.331,0.3321,0.3352,0.3366,0.3394,0.3393,0.3418,0.3425,0.3441,0.3447,0.3492,0.352,0.3488,0.3525,0.361,0.3626,0.364,0.3737,0.3759,0.3483,0.3483,0.3483,0,0.3209,0.3225,0.3244,0.3267,0.3291,0.3314,0.3342,0.3366,0.3396,0.3419,0.3404,0.3459,0.3454,0.3505,0.3515,0.3508,0.3565,0.3497,0.3621,0.3635,0.3649,0.3744,0.3768,0.3486,0.3486,0.3485,0.3485,0,0.322,0.324,0.3252,0.3287,0.3315,0.3345,0.3382,0.3411,0.3428,0.3455,0.3513,0.3523,0.3559,0.356,0.3547,0.3637,0.3652,0.3626,0.3606,0.367,0.3766,0.379,0.349,0.3489,0.3488,0.3487,0,0,0.3201,0.3251,0.3256,0.3286,0.3333,0.3362,0.3401,0.3458,0.3507,0.3531,0.3605,0.3622,0.3643,0.3653,0.3655,0.3715,0.3857,0.3709,0.3713,0.3812,0.4072,0.403,0.4053,0.3856,0.386,0.3863,0.4107,0,0.321,0.325,0.3275,0.3329,0.3362,0.3404,0.3448,0.35,0.3547,0.3624,0.3657,0.3727,0.3674,0.3716,0.3764,0.3837,0.392,0.3795,0.3989,0.3996,0.3956,0.4079,0.3898,0.4095,0.4131,0.4135,0.4138,0,0.3219,0.3247,0.3291,0.3371,0.3391,0.3427,0.3519,0.3564,0.3664,0.3707,0.3772,0.382,0.3913,0.3868,0.4028,0.3953,0.4024,0.4074,0.4085,0.4046,0.3999,0.4033,0.4138,0.4009,0.4175,0.4172,0.417,0,0.3203,0.3267,0.3302,0.3327,0.341,0.3448,0.3497,0.3588,0.3644,0.3781,0.386,0.3952,0.4033,0.4123,0.4211,0.4143,0.441,0.4327,0.4367,0.4366,0.425,0.4231,0.4255,0.4479,0.4478,0.4477,0.4477,0,0.3213,0.3248,0.3302,0.3327,0.3392,0.3452,0.3532,0.3603,0.3715,0.3809,0.3907,0.4005,0.4104,0.4252,0.4302,0.4427,0.4491,0.442,0.4438,0.4262,0.4242,0.415,0.4101,0.4487,0.4485,0.4483,0.4481,0,0.3205,0.3231,0.3284,0.3361,0.3386,0.3436,0.3535,0.3606,0.3721,0.3858,0.3919,0.4084,0.427,0.4398,0.4577,0.4552,0.4553,0.4711,0.4505,0.4492,0.4323,0.4283,0.4225,0.4102,0.4772,0.4773,0.4773,0,0.321,0.3231,0.3294,0.3324,0.3362,0.3429,0.3485,0.3588,0.3666,0.3892,0.397,0.4203,0.4331,0.4592,0.4638,0.4781,0.4624,0.4675,0.4486,0.4332,0.4303,0.4115,0.4,0.4372,0.437,0.4367,0.4365,0,0.3229,0.3241,0.3282,0.3332,0.3384,0.3425,0.3514,0.356,0.3708,0.3833,0.3996,0.4124,0.4383,0.4421,0.4624,0.4662,0.442,0.4628,0.4524,0.4054,0.3799,0.368,0.4209,0.4345,0.4347,0.4349,0.435,0.435,0.3243,0.3268,0.3308,0.3346,0.3394,0.3415,0.3406,0.351,0.3596,0.3739,0.3922,0.4055,0.4212,0.4435,0.4455,0.4343,0.4312,0.418,0.4175,0.402,0.3789,0.4283,0.4389,0.4391,0.4393,0.4395,0.4396,0,0.3263,0.3282,0.3322,0.3342,0.3347,0.3379,0.3418,0.3381,0.3422,0.3615,0.3731,0.3881,0.3967,0.4062,0.405,0.3898,0.3697,0.3793,0.3471,0.3401,0.3904,0.377,0.3677,0.3677,0.3678,0.3678,0.3678,0.3678,0.3277,0.3297,0.3294,0.3271,0.3275,0.3208,0.3183,0.316,0.3229,0.3273,0.3336,0.3467,0.3672,0.3795,0.3659,0.3566,0.3267,0.3138,0.3141,0.348,0.3512,0.3543,0.3402,0.3234,0.3234,0.2443,0.2438,0.2434]},{"header":{"parameterUnit":"m.s-1","parameterCategory":2,"la1":30.2991,"la2":30.254,"lo1":-89.0895,"lo2":-89.0444,"dy":0.0017,"dx":0.0017,"nx":28,"ny":28,"refTime":"2024-10-11T21:00:00:Z","depth":"0","parameterNumber":3,"parameterNumberName":"V-component_of_CURRENTS"},"data":[0,0,0,0,0,0,0,0,0,0,0,0,0,0,0,0,0,0,0,0,0,0,0,0,0,0,0,0,0,0,0,0,0,0,0,0,0,0,0,0,0,0,0,0,0,0,0,0,0,0,0,0,0,0,0,0,0,0,-0.023,-0.0231,0,-0.0314,-0.0315,-0.0316,-0.0376,-0.0376,-0.0376,-0.0376,-0.0444,-0.0445,-0.0447,0,0,0,0,0,0,0,0,0,0,0,0,0,-0.0189,-0.0189,-0.023,-0.0231,-0.0231,-0.0314,-0.0315,-0.0317,-0.0376,-0.0376,-0.0376,-0.0376,-0.0443,-0.0445,-0.0447,0,0,0,0,0,0,0,0,0,0,0,0,0,-0.0236,-0.0189,-0.023,-0.0268,-0.0272,-0.0313,-0.0315,-0.0317,-0.0376,-0.0376,-0.0376,-0.0376,-0.0443,-0.0445,-0.0447,-0.0459,0,0,-0.0455,-0.0456,0,0,0,0,0,0,0,0,-0.0234,-0.0238,-0.0262,-0.0266,-0.027,-0.0331,-0.0325,-0.0362,-0.0376,-0.034,-0.0376,-0.0377,-0.0402,-0.0408,-0.0429,-0.0462,-0.0465,-0.0455,-0.0457,-0.0458,-0.0459,0,0,0,0,0,0,0,-0.023,-0.0235,-0.0267,-0.0262,-0.0267,-0.0304,-0.0311,-0.0333,-0.0372,-0.0344,-0.0347,-0.035,-0.0405,-0.0426,-0.0431,-0.0466,-0.0455,-0.0457,-0.0459,-0.046,-0.0488,-0.0488,0,0,0,0,0,0,-0.0209,-0.0232,-0.0264,-0.0269,-0.0248,-0.0304,-0.0312,-0.0315,-0.0372,-0.038,-0.035,-0.0353,-0.0422,-0.0428,-0.0433,-0.0414,-0.0458,-0.046,-0.0462,-0.0489,-0.0488,-0.0487,0,0,0,0,0,0,-0.0207,-0.0211,-0.0261,-0.025,-0.0258,-0.0304,-0.0307,-0.0316,-0.0331,-0.0376,-0.0385,-0.0354,-0.0422,-0.043,-0.0444,-0.0418,-0.0461,-0.0464,-0.049,-0.0489,-0.0488,-0.0398,0,0,0,0,0,0,-0.0206,-0.021,-0.0203,-0.0248,-0.0258,-0.0263,-0.0306,-0.0317,-0.0331,-0.0335,-0.0382,-0.0389,-0.0423,-0.044,-0.0446,-0.0422,-0.0465,-0.0491,-0.0489,-0.0488,-0.0402,-0.0394,-0.0387,0,0,0,0,0,-0.0204,-0.0181,-0.0202,-0.0206,-0.0247,-0.0262,-0.027,-0.0307,-0.033,-0.0324,-0.0363,-0.0388,-0.0435,-0.0441,-0.0449,-0.0425,-0.0491,-0.049,-0.0488,-0.0405,-0.0395,-0.0387,0,0,0,0,0,0,-0.0153,-0.0187,-0.021,-0.0198,-0.0221,-0.027,-0.0267,-0.0297,-0.0326,-0.0331,-0.0382,-0.0391,-0.0396,-0.0423,-0.0428,-0.043,-0.0466,-0.0466,-0.04,-0.0391,-0.0384,-0.0357,-0.0468,0,0,0,0,0,-0.014,-0.0137,-0.0174,-0.0164,-0.0172,-0.0221,-0.0233,-0.0258,-0.029,-0.0304,-0.0338,-0.0372,-0.0397,-0.0403,-0.0432,-0.0429,-0.0436,-0.0419,-0.0411,-0.0405,-0.0388,-0.0397,-0.0389,-0.0482,-0.0482,-0.0482,0,0,-0.0117,-0.0135,-0.0134,-0.0154,-0.0179,-0.0173,-0.0229,-0.0235,-0.023,-0.0305,-0.0306,-0.035,-0.0393,-0.0396,-0.0399,-0.0411,-0.0375,-0.0403,-0.0397,-0.0384,-0.0395,-0.0385,-0.0377,-0.0481,-0.0481,-0.0481,0,0,-0.0065,-0.0086,-0.0067,-0.008,-0.0105,-0.0132,-0.0127,-0.0169,-0.0187,-0.02,-0.0252,-0.0278,-0.0314,-0.0339,-0.0356,-0.0324,-0.0342,-0.0331,-0.0263,-0.0272,-0.0264,-0.0257,-0.022,-0.0211,-0.032,-0.0319,-0.0319,0,-0.0037,-0.0023,-0.0061,-0.0045,-0.0046,-0.0104,-0.008,-0.0103,-0.0144,-0.0148,-0.0183,-0.0241,-0.0285,-0.0282,-0.0278,-0.0305,-0.0298,-0.0292,-0.026,-0.0254,-0.0248,-0.0213,-0.0204,-0.0315,-0.0315,-0.0316,-0.0316,0,0.0025,0.0035,0.0049,0.0047,0.0045,0.0056,0.0024,0.0018,-0.0016,-0.0044,-0.0059,-0.0128,-0.0159,-0.0178,-0.0221,-0.02,-0.0202,-0.0255,-0.0278,-0.0233,-0.0199,-0.019,-0.0308,-0.031,-0.0311,-0.0312,0,0,0.0085,0.0091,0.0095,0.0109,0.0093,0.0101,0.0116,0.0114,0.0138,0.0079,0.0108,0.0031,-0.0016,-0.0039,-0.0097,-0.0107,-0.0069,-0.0155,-0.0158,-0.0107,-0.0044,-0.0031,-0.0022,-0.0116,-0.0115,-0.0114,-0.0022,0,0.0141,0.0193,0.018,0.0231,0.0252,0.0217,0.0243,0.0234,0.0216,0.0233,0.0157,0.0156,0.0042,0.0038,0.0002,-0.0051,-0.0049,-0.0086,-0.0104,-0.0103,-0.009,-0.0013,-0.0039,0.004,-0.0015,-0.0013,-0.0012,0,0.0202,0.0227,0.029,0.032,0.0328,0.0357,0.0391,0.0407,0.0409,0.0394,0.0365,0.0314,0.0286,0.0184,0.0118,0.0102,0.0041,-0.0005,-0.0004,-0.0019,-0.0077,-0.0022,0.0056,-0.015,-0.0001,-0.0002,-0.0003,0,0.0258,0.0303,0.0358,0.0367,0.0396,0.0428,0.0448,0.0461,0.0508,0.0514,0.0566,0.0479,0.0483,0.0372,0.0259,0.0195,0.0215,0.0109,0.0072,0.0074,0.0036,0.0032,-0.0082,0.0078,0.0078,0.0078,0.0078,0,0.032,0.036,0.0393,0.0423,0.0507,0.05,0.0596,0.0598,0.0654,0.0761,0.0661,0.0737,0.0529,0.0507,0.0356,0.0271,0.0287,0.0119,0.0101,0.007,0.0068,-0.013,-0.0251,0.0081,0.008,0.008,0.0079,0,0.0376,0.039,0.0459,0.051,0.0537,0.0602,0.0706,0.0787,0.0817,0.0967,0.099,0.0957,0.0931,0.0762,0.0622,0.0435,0.0221,0.0293,0.0298,0.0278,-0.0004,-0.0117,-0.0211,-0.0297,0.0252,0.0252,0.0253,0,0.0412,0.0453,0.0534,0.0606,0.0641,0.0737,0.0822,0.0861,0.0973,0.1125,0.1228,0.1244,0.1293,0.11,0.0784,0.0568,0.0334,0.0362,0.0203,0.0014,-0.0127,-0.0219,-0.0293,0.0205,0.0205,0.0205,0.0205,0,0.0496,0.0523,0.0594,0.0731,0.0834,0.0945,0.1077,0.1183,0.1285,0.1427,0.161,0.1668,0.1499,0.1251,0.0926,0.0722,0.0196,0.036,0.0145,-0.0172,-0.026,-0.0362,0.014,0.0208,0.0207,0.0207,0.0207,0.0207,0.0577,0.065,0.0755,0.0882,0.1006,0.1159,0.1261,0.1432,0.1624,0.1859,0.1895,0.2033,0.1631,0.1177,0.088,0.0257,0.0252,0.0017,-0.0095,-0.0161,-0.0289,0.0251,0.0296,0.0296,0.0296,0.0297,0.0297,0,0.0686,0.0774,0.0907,0.106,0.1199,0.1233,0.1442,0.1563,0.1805,0.2051,0.2216,0.2122,0.1628,0.1088,0.0267,-0.0149,-0.0339,-0.0384,-0.0566,-0.0615,-0.015,-0.0202,-0.0239,-0.0239,-0.0239,-0.0239,-0.0238,-0.0238,0.0763,0.0901,0.0956,0.1194,0.1304,0.1473,0.158,0.178,0.1974,0.2245,0.2355,0.2419,0.1977,0.0553,-0.0407,-0.062,-0.0946,-0.0987,-0.1116,-0.0869,-0.0842,-0.0817,-0.0896,-0.1079,-0.108,-0.1563,-0.1568,-0.1572]}],[{"header":{"parameterUnit":"m.s-1","parameterCategory":2,"la1":30.2991,"la2":30.254,"lo1":-89.0895,"lo2":-89.0444,"dy":0.0017,"dx":0.0017,"nx":28,"ny":28,"refTime":"2024-10-11T21:00:00:Z","depth":"2","parameterNumber":2,"parameterNumberName":"U-component_of_CURRENTS"},"data":[0,0,0,0,0,0,0,0,0,0,0,0,0,0,0,0,0,0,0,0,0,0,0,0,0,0,0,0,0,0,0,0,0,0,0,0,0,0,0,0,0,0,0,0,0,0,0,0,0,0,0,0,0,0,0,0,0,0,0.254,0.2541,0,0.2564,0.2564,0.2564,0.2586,0.2587,0.2588,0.2589,0.2614,0.2614,0.2614,0,0,0,0,0,0,0,0,0,0,0,0,0,0.2466,0.2467,0.254,0.2541,0.2542,0.2564,0.2564,0.2564,0.2586,0.2587,0.2588,0.2589,0.2614,0.2614,0.2614,0,0,0,0,0,0,0,0,0,0,0,0,0,0.2489,0.2468,0.254,0.256,0.2563,0.2564,0.2564,0.2564,0.2586,0.2587,0.2589,0.259,0.2614,0.2614,0.2614,0.2587,0,0,0.2613,0.2613,0,0,0,0,0,0,0,0,0.2488,0.2491,0.2556,0.2559,0.2562,0.2579,0.2548,0.2574,0.2586,0.2571,0.2589,0.259,0.2605,0.2606,0.2599,0.2588,0.2589,0.2613,0.2613,0.2613,0.2613,0,0,0,0,0,0,0,0.2487,0.249,0.2543,0.2557,0.2561,0.2553,0.2557,0.2552,0.2576,0.2572,0.2575,0.2587,0.2606,0.2599,0.26,0.259,0.2613,0.2613,0.2613,0.2613,0.2694,0.2696,0,0,0,0,0,0,0.2497,0.2489,0.2543,0.2545,0.2534,0.2554,0.2558,0.2567,0.2576,0.258,0.2586,0.2589,0.2599,0.26,0.2601,0.2664,0.2613,0.2613,0.2613,0.2691,0.2694,0.2697,0,0,0,0,0,0,0.2495,0.2502,0.2542,0.2522,0.2528,0.2555,0.2564,0.2567,0.2574,0.2588,0.2591,0.2593,0.26,0.2601,0.2643,0.2662,0.2613,0.2612,0.2689,0.2692,0.2695,0.273,0,0,0,0,0,0,0.2493,0.2501,0.2508,0.2523,0.253,0.2566,0.2563,0.2567,0.2582,0.2585,0.2594,0.2597,0.2601,0.2644,0.2643,0.2661,0.2612,0.2686,0.269,0.2694,0.2726,0.2734,0.2741,0,0,0,0,0,0.249,0.2493,0.2508,0.2515,0.254,0.2568,0.257,0.2588,0.2581,0.2595,0.2618,0.2597,0.267,0.2645,0.2644,0.2662,0.2684,0.2689,0.2694,0.2723,0.2733,0.2741,0,0,0,0,0,0,0.2471,0.2496,0.2514,0.2527,0.256,0.2574,0.2584,0.2589,0.2611,0.2621,0.2619,0.2625,0.2666,0.2667,0.2639,0.2704,0.2675,0.268,0.2698,0.2707,0.2714,0.2724,0.2612,0,0,0,0,0,0.2471,0.2478,0.2514,0.253,0.2544,0.2562,0.2573,0.2594,0.2617,0.2627,0.2637,0.2659,0.2681,0.2698,0.2715,0.2742,0.2766,0.2759,0.2767,0.2773,0.2784,0.2851,0.2866,0.2713,0.2713,0.2713,0,0,0.2471,0.2486,0.2493,0.2527,0.2546,0.2571,0.257,0.2602,0.263,0.2626,0.2662,0.2677,0.2695,0.2738,0.2756,0.2744,0.2832,0.2779,0.2784,0.2792,0.2858,0.2873,0.2886,0.2717,0.2716,0.2716,0,0,0.2476,0.2489,0.2501,0.2523,0.2568,0.2585,0.2597,0.2628,0.2651,0.2692,0.2702,0.2741,0.2762,0.2792,0.2804,0.2863,0.2865,0.2867,0.2913,0.2979,0.2991,0.3003,0.3057,0.3073,0.2876,0.2876,0.2876,0,0.2481,0.2496,0.2513,0.2532,0.2559,0.259,0.2623,0.2643,0.269,0.2722,0.2718,0.2785,0.2788,0.2851,0.2879,0.2876,0.2917,0.2869,0.2987,0.2999,0.301,0.3063,0.308,0.2878,0.2878,0.2878,0.2878,0,0.2496,0.2511,0.252,0.2556,0.2591,0.2621,0.2669,0.2702,0.2728,0.2761,0.2833,0.2856,0.2906,0.2908,0.2907,0.2992,0.2997,0.2981,0.2957,0.3027,0.3079,0.3096,0.2882,0.2881,0.288,0.288,0,0,0.2489,0.2524,0.2526,0.2546,0.2607,0.2633,0.2693,0.276,0.2808,0.2852,0.2922,0.2958,0.2985,0.3004,0.3015,0.3066,0.3167,0.3064,0.3066,0.3107,0.3322,0.3233,0.3243,0.3179,0.3182,0.3185,0.3327,0,0.2499,0.2529,0.2556,0.2597,0.262,0.2673,0.2729,0.28,0.2862,0.2935,0.298,0.3047,0.3019,0.306,0.3107,0.3163,0.3215,0.313,0.3259,0.3263,0.3165,0.326,0.3002,0.3099,0.3344,0.3347,0.3349,0,0.25,0.2521,0.2565,0.2621,0.264,0.2672,0.2776,0.2843,0.2957,0.3012,0.3095,0.3138,0.3233,0.3189,0.3322,0.3278,0.3306,0.3331,0.3337,0.3254,0.3205,0.307,0.3121,0.3377,0.3375,0.3373,0.3371,0,0.2475,0.2519,0.2555,0.2571,0.2649,0.2683,0.2741,0.2862,0.2944,0.3079,0.3159,0.3258,0.3344,0.3395,0.3445,0.3408,0.358,0.3533,0.3476,0.347,0.3273,0.3244,0.3619,0.3619,0.3618,0.3618,0.3618,0,0.246,0.2477,0.2533,0.2541,0.26,0.2674,0.278,0.2844,0.2988,0.3095,0.3205,0.3292,0.3406,0.3505,0.351,0.356,0.364,0.3509,0.3511,0.3278,0.3249,0.35,0.3484,0.3623,0.3622,0.3621,0.362,0,0.2424,0.2457,0.249,0.2558,0.2584,0.2632,0.278,0.2863,0.3006,0.3153,0.3205,0.3375,0.3505,0.3593,0.3703,0.3658,0.3693,0.3677,0.3393,0.3357,0.3523,0.3508,0.3647,0.3645,0.3644,0.3642,0.3641,0,0.2413,0.2419,0.2489,0.2517,0.254,0.2635,0.2713,0.2853,0.2935,0.3173,0.3215,0.3416,0.3494,0.3643,0.3627,0.3657,0.37,0.3411,0.3273,0.3544,0.3532,0.3518,0.3506,0.3037,0.3031,0.3026,0.3022,0,0.239,0.241,0.2443,0.2489,0.2542,0.2627,0.2717,0.2771,0.2953,0.3074,0.3205,0.3294,0.3452,0.3367,0.3423,0.3384,0.3384,0.3312,0.3707,0.3056,0.2976,0.2961,0.2968,0.2979,0.2984,0.2987,0.2989,0.2991,0.2382,0.239,0.2428,0.2456,0.2522,0.2563,0.2575,0.2681,0.2781,0.2878,0.3037,0.3079,0.3143,0.3084,0.3006,0.2967,0.318,0.3028,0.304,0.3058,0.2948,0.2868,0.2831,0.2835,0.2837,0.284,0.2842,0,0.2348,0.2356,0.2395,0.2409,0.2427,0.2499,0.2539,0.252,0.2555,0.2682,0.2755,0.2577,0.254,0.2605,0.2481,0.2485,0.2435,0.2383,0.2291,0.2338,0.2379,0.223,0.1926,0.1922,0.1919,0.1916,0,0,0.2338,0.234,0.234,0.2307,0.2327,0.2291,0.2283,0.2254,0.2273,0.2249,0.2249,0.2421,0.2535,0.219,0.2162,0.2019,0.2152,0.1945,0.2691,0.2632,0.2667,0.2777,0.2604,0,0,0,0,0]},{"header":{"parameterUnit":"m.s-1","parameterCategory":2,"la1":30.2991,"la2":30.254,"lo1":-89.0895,"lo2":-89.0444,"dy":0.0017,"dx":0.0017,"nx":28,"ny":28,"refTime":"2024-10-11T21:00:00:Z","depth":"2","parameterNumber":3,"parameterNumberName":"V-component_of_CURRENTS"},"data":[0,0,0,0,0,0,0,0,0,0,0,0,0,0,0,0,0,0,0,0,0,0,0,0,0,0,0,0,0,0,0,0,0,0,0,0,0,0,0,0,0,0,0,0,0,0,0,0,0,0,0,0,0,0,0,0,0,0,0.0087,0.0087,0,0.004,0.0039,0.0039,-0.0005,-0.0006,-0.0007,-0.0007,-0.008,-0.0081,-0.0083,0,0,0,0,0,0,0,0,0,0,0,0,0,0.011,0.011,0.0087,0.0087,0.0086,0.004,0.0039,0.0039,-0.0005,-0.0006,-0.0007,-0.0007,-0.008,-0.0081,-0.0083,0,0,0,0,0,0,0,0,0,0,0,0,0,0.0086,0.011,0.0088,0.0058,0.0055,0.004,0.0039,0.0039,-0.0005,-0.0006,-0.0007,-0.0008,-0.0079,-0.0081,-0.0083,-0.0077,0,0,-0.0089,-0.009,0,0,0,0,0,0,0,0,0.0088,0.0085,0.0063,0.006,0.0056,0.0022,0.0021,-0.0002,-0.0005,0.0019,-0.0007,-0.0008,-0.0048,-0.0053,-0.0058,-0.0081,-0.0084,-0.009,-0.0091,-0.0092,-0.0092,0,0,0,0,0,0,0,0.0089,0.0087,0.0069,0.0062,0.0058,0.0037,0.0033,0.0016,-0.0009,0.0016,0.0013,0.0007,-0.005,-0.0056,-0.0061,-0.0085,-0.009,-0.0091,-0.0093,-0.0093,-0.014,-0.014,0,0,0,0,0,0,0.0096,0.0089,0.0071,0.0068,0.0069,0.0037,0.0033,0.0034,-0.0008,-0.0016,0.0008,0.0005,-0.0052,-0.0058,-0.0063,-0.0068,-0.0092,-0.0094,-0.0095,-0.014,-0.014,-0.014,0,0,0,0,0,0,0.0097,0.0096,0.0073,0.0076,0.0072,0.0038,0.004,0.0034,0.0026,-0.0015,-0.0023,0.0005,-0.0053,-0.006,-0.0084,-0.0071,-0.0095,-0.0096,-0.014,-0.014,-0.014,-0.0073,0,0,0,0,0,0,0.0098,0.0097,0.0102,0.0077,0.0072,0.0068,0.0041,0.0034,0.0023,0.0019,-0.0019,-0.0027,-0.0055,-0.0081,-0.0086,-0.0075,-0.0098,-0.014,-0.014,-0.014,-0.0075,-0.0071,-0.0067,0,0,0,0,0,0.0099,0.0113,0.0103,0.0101,0.0081,0.0068,0.0064,0.0037,0.0024,0.0025,-0.0007,-0.0026,-0.0085,-0.0082,-0.0089,-0.0077,-0.014,-0.014,-0.014,-0.0077,-0.0071,-0.0067,0,0,0,0,0,0,0.0122,0.0109,0.0098,0.0106,0.0089,0.006,0.006,0.0043,0.002,0.0014,-0.0024,-0.0034,-0.005,-0.0075,-0.0071,-0.0093,-0.0116,-0.0117,-0.0066,-0.0061,-0.0057,-0.0036,-0.01,0,0,0,0,0,0.0132,0.0139,0.0118,0.0123,0.0119,0.0091,0.0084,0.0065,0.004,0.0029,0.0002,-0.003,-0.0053,-0.0066,-0.0092,-0.01,-0.0123,-0.0099,-0.0095,-0.0091,-0.0079,-0.0109,-0.0106,-0.014,-0.014,-0.014,0,0,0.0139,0.0134,0.0136,0.0128,0.0114,0.012,0.0085,0.0076,0.0078,0.0026,0.002,-0.0014,-0.0053,-0.0065,-0.0074,-0.0085,-0.0095,-0.0091,-0.0087,-0.0078,-0.0108,-0.0105,-0.0102,-0.014,-0.014,-0.014,0,0,0.0163,0.0156,0.0173,0.0167,0.0152,0.0138,0.0139,0.0114,0.0101,0.0088,0.0051,0.0024,-0.0009,-0.0034,-0.005,-0.0037,-0.0071,-0.0049,-0.0008,-0.0037,-0.0034,-0.0032,-0.0057,-0.0057,-0.0047,-0.0047,-0.0047,0,0.0173,0.0193,0.0173,0.0189,0.0193,0.0153,0.0173,0.0156,0.0124,0.0121,0.0093,0.0045,0.0009,-0.0001,-0.0003,-0.0025,-0.0048,-0.0021,-0.003,-0.0028,-0.0027,-0.0053,-0.0054,-0.0043,-0.0044,-0.0044,-0.0044,0,0.021,0.0226,0.0236,0.0248,0.0248,0.0256,0.0235,0.0226,0.0204,0.0188,0.0168,0.0112,0.0086,0.0066,0.0034,0.0028,0.0006,-0.0019,-0.0037,-0.0019,-0.0048,-0.0051,-0.0039,-0.004,-0.0041,-0.0042,0,0,0.0236,0.026,0.0264,0.0289,0.0283,0.0292,0.0294,0.0294,0.0311,0.026,0.0275,0.0215,0.0182,0.0161,0.0113,0.0082,0.0063,0.0039,0.0036,0.0025,0.0002,-0.0036,-0.0043,0.0036,0.0036,0.0036,-0.0021,0,0.0273,0.0327,0.0323,0.0372,0.0402,0.0375,0.0387,0.0378,0.0364,0.0366,0.03,0.0292,0.022,0.0209,0.0165,0.0097,0.006,0.0081,-0.0023,-0.0026,-0.0053,-0.0046,-0.0019,-0.0069,-0.0024,-0.0024,-0.0025,0,0.0314,0.035,0.0407,0.0452,0.0462,0.0481,0.0508,0.0514,0.0497,0.0485,0.0454,0.0405,0.0354,0.0287,0.0175,0.0192,0.0104,0.0039,0.0035,-0.0023,-0.0068,-0.0082,-0.0076,-0.0029,-0.0029,-0.0028,-0.0028,0,0.0356,0.041,0.0465,0.0479,0.0515,0.0534,0.0551,0.0552,0.0583,0.0566,0.0591,0.0505,0.0484,0.0358,0.0213,0.0196,0.0088,0.0048,-0.0071,-0.0075,-0.0083,-0.0087,-0.0036,-0.0036,-0.0035,-0.0035,-0.0035,0,0.0404,0.0449,0.0493,0.0524,0.0595,0.0595,0.0666,0.0663,0.0689,0.0751,0.0662,0.0681,0.0501,0.0413,0.0256,0.0092,0.0118,-0.0059,-0.0091,-0.0061,-0.0062,-0.0054,-0.0055,-0.0037,-0.0037,-0.0037,-0.0036,0,0.0442,0.0466,0.0538,0.0594,0.0617,0.0669,0.0751,0.0807,0.0817,0.0895,0.0896,0.0826,0.0706,0.0519,0.0324,0.0169,-0.0,-0.007,-0.0023,-0.0049,-0.0156,-0.0154,-0.0205,-0.0206,-0.0208,-0.0209,-0.021,0,0.0467,0.0507,0.0593,0.0647,0.0678,0.0759,0.0821,0.0861,0.0934,0.0986,0.1031,0.0944,0.0885,0.0584,0.0298,0.0024,-0.0009,-0.0136,-0.0175,-0.0147,-0.0173,-0.0168,-0.0164,-0.0159,-0.0159,-0.016,-0.016,0,0.052,0.0545,0.0605,0.0715,0.0796,0.0899,0.0993,0.1069,0.113,0.12,0.125,0.1203,0.0919,0.0637,0.0258,0.0067,-0.0094,-0.0156,-0.0127,-0.0124,-0.0109,-0.0133,-0.0129,-0.0164,-0.0163,-0.0163,-0.0163,-0.0163,0.0552,0.0608,0.0686,0.0793,0.0892,0.102,0.1116,0.1223,0.1344,0.144,0.1385,0.1326,0.101,0.0515,0.0198,-0.0129,-0.0127,-0.0246,-0.0242,-0.0238,-0.0227,-0.0216,-0.0288,-0.0288,-0.0289,-0.0289,-0.0289,0,0.0595,0.0662,0.0764,0.0891,0.1014,0.106,0.122,0.1322,0.1471,0.1523,0.1543,0.1235,0.0917,0.0568,0.008,-0.0224,-0.0237,-0.0314,-0.0256,-0.025,-0.0246,-0.0233,-0.0297,-0.0298,-0.0298,-0.0299,0,0,0.0618,0.0717,0.0774,0.097,0.1074,0.1241,0.1343,0.1473,0.1545,0.1587,0.1543,0.1437,0.1012,0.0663,0.0259,-0.0012,-0.0061,-0.007,-0.0035,0.0086,0.0095,-0.0183,-0.0154,0,0,0,0,0]}],[{"header":{"parameterUnit":"m.s-1","parameterCategory":2,"la1":30.2991,"la2":30.254,"lo1":-89.0895,"lo2":-89.0444,"dy":0.0017,"dx":0.0017,"nx":28,"ny":28,"refTime":"2024-10-11T21:00:00:Z","depth":"4","parameterNumber":2,"parameterNumberName":"U-component_of_CURRENTS"},"data":[0,0,0,0,0,0,0,0,0,0,0,0,0,0,0,0,0,0,0,0,0,0,0,0,0,0,0,0,0,0,0,0,0,0,0,0,0,0,0,0,0,0,0,0,0,0,0,0,0,0,0,0,0,0,0,0,0,0,0.1507,0.1508,0,0.1565,0.1566,0.1566,0.1615,0.1616,0.1616,0.1617,0.171,0.1711,0.1713,0,0,0,0,0,0,0,0,0,0,0,0,0,0.1414,0.1415,0.1507,0.1508,0.1509,0.1565,0.1566,0.1566,0.1615,0.1616,0.1617,0.1617,0.1709,0.1711,0.1713,0,0,0,0,0,0,0,0,0,0,0,0,0,0.1459,0.1416,0.1507,0.1542,0.1546,0.1565,0.1566,0.1567,0.1614,0.1616,0.1617,0.1618,0.1708,0.1711,0.1713,0.1707,0,0,0.1721,0.1723,0,0,0,0,0,0,0,0,0.1456,0.1462,0.1536,0.154,0.1544,0.1586,0.1567,0.1616,0.1614,0.1586,0.1617,0.1618,0.1672,0.1678,0.1682,0.1711,0.1715,0.1722,0.1723,0.1724,0.1725,0,0,0,0,0,0,0,0.1453,0.146,0.1528,0.1537,0.1542,0.1547,0.1554,0.1576,0.162,0.1588,0.1592,0.1603,0.1675,0.1679,0.1685,0.1716,0.1722,0.1724,0.1726,0.1727,0.1847,0.1849,0,0,0,0,0,0,0.1452,0.1457,0.1526,0.153,0.1505,0.1548,0.1556,0.1569,0.162,0.1629,0.1602,0.1605,0.1674,0.1682,0.1688,0.1782,0.1724,0.1727,0.1728,0.1846,0.1848,0.185,0,0,0,0,0,0,0.1449,0.1457,0.1523,0.1496,0.1506,0.1549,0.1563,0.157,0.1613,0.163,0.164,0.1642,0.1676,0.1685,0.1741,0.1783,0.1728,0.173,0.1844,0.1846,0.1849,0.1907,0,0,0,0,0,0,0.1446,0.1456,0.1479,0.1496,0.1507,0.1558,0.1562,0.157,0.1616,0.1622,0.1667,0.1674,0.1677,0.1737,0.1744,0.1785,0.1732,0.1842,0.1845,0.1848,0.1903,0.1911,0.1918,0,0,0,0,0,0.1443,0.1461,0.148,0.1489,0.1533,0.1559,0.1565,0.1597,0.1617,0.1639,0.1674,0.1675,0.1762,0.1741,0.1748,0.1791,0.184,0.1844,0.1848,0.19,0.191,0.1918,0,0,0,0,0,0,0.1428,0.1469,0.1489,0.152,0.1551,0.1569,0.1596,0.1617,0.1661,0.1678,0.1694,0.1704,0.177,0.1771,0.1748,0.1835,0.1802,0.1807,0.1839,0.1848,0.1856,0.1841,0.1735,0,0,0,0,0,0.1436,0.1469,0.15,0.153,0.1548,0.158,0.1602,0.1624,0.1657,0.1679,0.1712,0.1748,0.1783,0.181,0.1836,0.1882,0.1886,0.1915,0.1923,0.1929,0.1923,0.197,0.1981,0.1862,0.1862,0.1862,0,0,0.144,0.1467,0.1487,0.1531,0.1558,0.1587,0.1597,0.1639,0.1671,0.1681,0.1749,0.178,0.1802,0.1856,0.1886,0.1868,0.1968,0.1934,0.1939,0.1929,0.1975,0.1986,0.1996,0.1864,0.1864,0.1863,0,0,0.1448,0.1489,0.1516,0.1546,0.1596,0.1614,0.1636,0.1679,0.1712,0.1769,0.1791,0.1843,0.1898,0.192,0.1936,0.2,0.2007,0.2023,0.2051,0.2098,0.2108,0.2116,0.2145,0.2156,0.2026,0.2026,0.2026,0,0.1453,0.1489,0.1527,0.1558,0.1587,0.1632,0.1661,0.1697,0.1757,0.179,0.1802,0.19,0.1922,0.1984,0.2007,0.2018,0.2042,0.2015,0.2107,0.2116,0.2124,0.2151,0.2162,0.2029,0.2029,0.2029,0.2028,0,0.1471,0.1514,0.1532,0.1589,0.1624,0.1659,0.1708,0.176,0.1809,0.1844,0.1931,0.1964,0.2022,0.2043,0.2045,0.212,0.212,0.2113,0.2082,0.2139,0.2165,0.2175,0.2034,0.2033,0.2032,0.2031,0,0,0.1446,0.1528,0.154,0.1571,0.1645,0.1669,0.1738,0.1802,0.1859,0.1924,0.1992,0.2054,0.2089,0.2108,0.2132,0.2166,0.2246,0.2169,0.217,0.2193,0.2352,0.2206,0.2203,0.2268,0.227,0.2272,0.235,0,0.1451,0.1504,0.155,0.1609,0.1639,0.1706,0.1766,0.1836,0.1905,0.1984,0.2036,0.2112,0.211,0.2157,0.2194,0.2241,0.2276,0.2225,0.2296,0.2297,0.2157,0.2211,0.2278,0.2358,0.236,0.2362,0.2363,0,0.1446,0.1488,0.1541,0.1624,0.1646,0.1694,0.1799,0.186,0.1975,0.2039,0.2123,0.2169,0.2249,0.2232,0.2332,0.2309,0.2333,0.2352,0.2356,0.22,0.2169,0.2287,0.2382,0.238,0.2379,0.2378,0.2376,0,0.1393,0.1477,0.1519,0.1548,0.1651,0.17,0.1764,0.188,0.1947,0.2084,0.2152,0.2246,0.2314,0.2362,0.241,0.239,0.2502,0.2478,0.2363,0.2354,0.2436,0.2425,0.2533,0.2533,0.2533,0.2533,0.2533,0,0.136,0.14,0.1504,0.1528,0.1597,0.168,0.177,0.186,0.1989,0.207,0.2181,0.2247,0.2354,0.2424,0.2444,0.2438,0.2539,0.2368,0.2364,0.246,0.2451,0.2443,0.2432,0.2536,0.2535,0.2534,0.2534,0,0.1288,0.1359,0.1417,0.1533,0.1574,0.1626,0.1766,0.1827,0.1974,0.2083,0.2133,0.2281,0.2372,0.2451,0.2538,0.2472,0.2486,0.2457,0.2563,0.2564,0.2295,0.2286,0.2323,0.2318,0.2315,0.2311,0.2309,0,0.1251,0.1271,0.1402,0.1444,0.1502,0.1594,0.1656,0.1808,0.1876,0.2078,0.2113,0.2256,0.2336,0.235,0.2435,0.2467,0.2437,0.2422,0.2332,0.2281,0.2275,0.2272,0.2268,0.2303,0.2302,0.2301,0.23,0,0.1174,0.1235,0.1285,0.1374,0.1445,0.1509,0.1609,0.165,0.1824,0.1973,0.2056,0.2106,0.2202,0.2258,0.2309,0.232,0.2416,0.2381,0.2388,0.2303,0.2257,0.2254,0.2254,0.2287,0.2288,0.229,0.229,0,0.1122,0.1136,0.1213,0.128,0.1361,0.1393,0.1464,0.1545,0.1632,0.1863,0.1881,0.204,0.2181,0.2182,0.2225,0.2233,0.2186,0.21,0.2121,0.2136,0.2036,0.1947,0.1879,0,0,0,0,0,0.1063,0.1064,0.1111,0.1168,0.1239,0.1287,0.1415,0.1493,0.1665,0.1682,0.1783,0.1866,0.1934,0.2007,0.1977,0.2122,0.2183,0.2074,0.2091,0.2213,0.2228,0.2126,0,0,0,0,0,0,0.102,0.1057,0.1069,0.1057,0.1071,0.1129,0.1206,0.1324,0.1351,0.1542,0.1595,0.1736,0.1834,0.1931,0.1934,0.1957,0.1925,0.2177,0.2172,0.2204,0.2218,0.2231,0.2131,0,0,0,0,0]},{"header":{"parameterUnit":"m.s-1","parameterCategory":2,"la1":30.2991,"la2":30.254,"lo1":-89.0895,"lo2":-89.0444,"dy":0.0017,"dx":0.0017,"nx":28,"ny":28,"refTime":"2024-10-11T21:00:00:Z","depth":"4","parameterNumber":3,"parameterNumberName":"V-component_of_CURRENTS"},"data":[0,0,0,0,0,0,0,0,0,0,0,0,0,0,0,0,0,0,0,0,0,0,0,0,0,0,0,0,0,0,0,0,0,0,0,0,0,0,0,0,0,0,0,0,0,0,0,0,0,0,0,0,0,0,0,0,0,0,0.0147,0.0147,0,0.0118,0.0118,0.0117,0.0099,0.0099,0.0099,0.0099,0.0053,0.0052,0.0051,0,0,0,0,0,0,0,0,0,0,0,0,0,0.0157,0.0157,0.0147,0.0147,0.0147,0.0118,0.0118,0.0117,0.0099,0.0099,0.0099,0.0099,0.0054,0.0052,0.0051,0,0,0,0,0,0,0,0,0,0,0,0,0,0.0143,0.0157,0.0147,0.0134,0.0133,0.0118,0.0118,0.0117,0.0099,0.0099,0.0099,0.0099,0.0054,0.0052,0.0051,0.0043,0,0,0.0046,0.0045,0,0,0,0,0,0,0,0,0.0143,0.0142,0.0136,0.0135,0.0133,0.0112,0.0104,0.0092,0.0099,0.0112,0.0099,0.0099,0.0072,0.0068,0.0063,0.0041,0.0039,0.0046,0.0045,0.0044,0.0043,0,0,0,0,0,0,0,0.0144,0.0143,0.0136,0.0136,0.0134,0.0119,0.0117,0.0102,0.0093,0.0111,0.0109,0.0106,0.0071,0.0065,0.0062,0.0039,0.0046,0.0044,0.0043,0.0042,0.0009,0.001,0,0,0,0,0,0,0.015,0.0144,0.0137,0.0135,0.0138,0.0119,0.0117,0.0119,0.0093,0.0089,0.0106,0.0105,0.0068,0.0064,0.0061,0.006,0.0044,0.0042,0.0041,0.0009,0.0009,0.001,0,0,0,0,0,0,0.015,0.015,0.0138,0.0139,0.0136,0.0119,0.0122,0.0119,0.0115,0.009,0.0086,0.0106,0.0068,0.0063,0.0053,0.0057,0.0041,0.004,0.0009,0.0009,0.001,0.0051,0,0,0,0,0,0,0.0151,0.015,0.0155,0.0139,0.0136,0.0134,0.0122,0.0118,0.0113,0.0112,0.0088,0.0084,0.0067,0.0055,0.0051,0.0055,0.0039,0.0009,0.0009,0.0009,0.005,0.0053,0.0056,0,0,0,0,0,0.0151,0.0158,0.0155,0.0154,0.0143,0.0134,0.0131,0.0118,0.0113,0.0114,0.01,0.0085,0.0054,0.0054,0.0049,0.0052,0.0009,0.0009,0.0009,0.0049,0.0052,0.0056,0,0,0,0,0,0,0.0161,0.0157,0.0153,0.0157,0.0149,0.0131,0.0131,0.0122,0.0112,0.0111,0.0088,0.0082,0.0074,0.0057,0.0059,0.0043,0.0028,0.0027,0.0059,0.0063,0.0066,0.008,0.0037,0,0,0,0,0,0.0167,0.0173,0.0162,0.0165,0.0163,0.0148,0.0144,0.0135,0.0123,0.0118,0.0102,0.0085,0.007,0.0063,0.0047,0.004,0.0012,0.0038,0.0041,0.0043,0.0051,0.0016,0.0016,0.0011,0.0011,0.0011,0,0,0.017,0.0168,0.0171,0.0167,0.016,0.0166,0.0145,0.0142,0.0146,0.0115,0.0116,0.0094,0.0071,0.0063,0.0058,0.0051,0.0027,0.0044,0.0046,0.0053,0.0016,0.0017,0.0017,0.0011,0.0011,0.0011,0,0,0.0182,0.018,0.0191,0.019,0.0184,0.0177,0.0179,0.0165,0.016,0.0156,0.0135,0.0119,0.0098,0.0083,0.0072,0.0081,0.0044,0.0073,0.0101,0.0067,0.0067,0.0067,0.0022,0.0017,0.0075,0.0075,0.0075,0,0.0187,0.0201,0.0191,0.0202,0.0208,0.0187,0.0202,0.0192,0.0177,0.0177,0.0162,0.0131,0.0109,0.01,0.0104,0.0089,0.0059,0.0091,0.0071,0.007,0.0069,0.0023,0.0018,0.0077,0.0077,0.0077,0.0077,0,0.0208,0.0222,0.0228,0.024,0.0243,0.0251,0.0242,0.0239,0.0229,0.022,0.0207,0.0173,0.0157,0.0143,0.0127,0.0113,0.0089,0.0078,0.0064,0.0073,0.0023,0.0017,0.008,0.008,0.0079,0.0079,0,0,0.0216,0.0241,0.0244,0.0264,0.0268,0.0276,0.0281,0.0285,0.0296,0.0266,0.0271,0.0239,0.0217,0.0204,0.0173,0.0143,0.0105,0.0113,0.0111,0.0072,0.0019,-0.0,-0.001,0.009,0.0089,0.0089,-0.0018,0,0.0239,0.0277,0.028,0.0318,0.034,0.0331,0.0342,0.034,0.0333,0.033,0.0285,0.0278,0.0241,0.0233,0.0196,0.0131,0.0093,0.0135,0.0013,0.0009,-0.0005,-0.0016,0.0087,-0.0023,-0.0024,-0.0025,-0.0026,0,0.026,0.0287,0.0331,0.037,0.0379,0.0396,0.042,0.0429,0.0414,0.0406,0.0383,0.0347,0.03,0.0266,0.0155,0.0183,0.0108,0.0051,0.0045,0.0012,-0.0021,-0.0032,-0.0038,-0.0037,-0.0036,-0.0036,-0.0035,0,0.028,0.0324,0.0366,0.0379,0.0413,0.0432,0.045,0.0454,0.0474,0.0457,0.0459,0.0396,0.0359,0.0266,0.0144,0.0149,0.0011,0.0001,-0.0091,-0.0094,-0.0064,-0.0062,-0.008,-0.0079,-0.0079,-0.0079,-0.0079,0,0.0304,0.0338,0.0382,0.0405,0.0458,0.047,0.0521,0.0523,0.0536,0.0562,0.0504,0.0488,0.0358,0.0262,0.0154,0.0008,0.0013,-0.0089,-0.012,-0.0046,-0.0041,-0.0069,-0.0067,-0.0083,-0.0082,-0.0081,-0.0081,0,0.0315,0.0343,0.0397,0.0448,0.0469,0.0508,0.0574,0.0606,0.061,0.0636,0.0632,0.0548,0.042,0.0278,0.0111,0.0019,-0.0115,-0.0169,-0.0088,-0.0113,-0.0202,-0.0196,-0.0279,-0.028,-0.0282,-0.0283,-0.0284,0,0.0323,0.035,0.0428,0.0468,0.0495,0.056,0.0601,0.0637,0.0676,0.0669,0.0675,0.0563,0.0488,0.024,0.0082,-0.0136,-0.0164,-0.0238,-0.0209,-0.0199,-0.0221,-0.0213,-0.0206,-0.0286,-0.0286,-0.0286,-0.0287,0,0.0335,0.0362,0.0408,0.0491,0.055,0.0624,0.0688,0.0721,0.0756,0.0759,0.0714,0.0587,0.0431,0.0237,0.006,-0.0093,-0.0188,-0.0252,-0.025,-0.0224,-0.0208,-0.0227,-0.0218,-0.0291,-0.029,-0.029,-0.029,0,0.0338,0.0373,0.0434,0.0512,0.0586,0.0661,0.0702,0.0742,0.0778,0.0777,0.0752,0.0595,0.0503,0.0256,0.0096,-0.0061,-0.0097,-0.0138,-0.0142,-0.014,-0.0067,-0.0024,-0.0079,0,0,0,0,0,0.034,0.0385,0.0451,0.0536,0.0611,0.0665,0.0744,0.0779,0.0812,0.0793,0.0783,0.0644,0.04,0.0285,0.0127,0.0056,-0.0138,-0.0137,-0.0189,-0.0315,-0.031,-0.025,0,0,0,0,0,0,0.0341,0.0401,0.0446,0.0542,0.0605,0.0694,0.0751,0.078,0.0775,0.0779,0.0653,0.0601,0.036,0.0493,0.0122,0.0072,0.0017,-0.0249,-0.0253,-0.0318,-0.0314,-0.031,-0.0245,0,0,0,0,0]}]]